Tracking 28125 objects as of 3-Oct-2023
HD Live streaming from Space Station
objects crossing your sky now

IRIDIUM 38

Track IRIDIUM 38 now!
10-day predictions
IRIDIUM 38 is classified as:


NORAD ID: 25043
Int'l Code: 1997-069E
Perigee: 773.7 km
Apogee: 778.2 km
Inclination: 86.4 °
Period: 100.2 minutes
Semi major axis: 7146 km
RCS: 5.0293 m2 (large)
Launch date: November 9, 1997
Source: United States (US)
Launch site: AIR FORCE WESTERN TEST RANGE (AFWTR)
Your satellite tracking list
Your tracking list is empty




NASA's NSSDC Master Catalog

Two Line Element Set (TLE):
1 25043U 97069E   23275.52765678  .00000654  00000-0  21464-3 0  9995
2 25043  86.3960 135.3462 0003161  43.1437 317.0007 14.36894379356629
Source of the keplerian elements: AFSPC